SL-14 DEB, 44575

Orbit data source: Space-Track

SL-14 DEB, 44575 is space debris in LEO originally from a launch on Thu, 24 Jun 1993 UTC launched from the Plesetsk Missile And Space Complex (PKMTR). Debris objects in space refer to the collection of defunct objects orbiting the Earth. Examples of debris include non-operational satellites, rocket bodies, and fragments generated from explosions, collisions, or faulty payload assembly.

Loading next visibility...
Identifier
44575, 1993-038H
Orbit
LEO
Country
Flag of CISCIS
Related business
Manufacturer
Unknown
Mission
Spacecraft
Bus & Motor
Unknown
Mass
Unknown
Launch date (UTC)
1993-06-24 (32 years ago)
Launch vehicle
Unknown
Launch site
Plesetsk Missile And Space Complex (PKMTR)
Object type
Payload
Rocket body
Debris
Shape & HBR
Unknown
Radar Cross Section
Small (<0.1 m²)

Expand to show TLE details & history
Last TLE update: 2 days ago

TLE from 2 days ago
0 SL-14 DEB
1 44575U 93038H   25257.51559316  .00000020  00000-0  57397-4 0  9991
2 44575  82.5896 162.8909 0044732 218.7607 141.0268 12.54893979401005
Epoch: 2025-09-14T12:22Z
TLE epoch observation values (Epoch: 2025-09-14T12:22:27.249Z)
Latitude
-0.00001°
Longitude
-16.45613°
Altitude
1,474.08 km
Speed
7.114 km/s
True Right ascension
10h 51m 33s
True Declination
0° 00' 00"
Sunlit
Object was in daylight at epoch
Visualization orbit readout
Latitude
Unknown
Longitude
Unknown
Altitude
Unknown
Speed
Unknown
Apparent Right ascension
Unknown
Apparent Declination
Unknown
Sunlit
N/A
Visualization observer readout
Local Sidereal Time
02:36:20
Azimuth
Unknown
Elevation
Unknown
Doppler factor
Unknown
Orbital elements
Apogee altitude
1,476.4 km
Perigee altitude
1,406.444 km
Semi-major axis
7,819.559 km
Eccentricity
0.00447
Inclination
82.5896°
RAAN
162.8909°
Arg. of periapsis
218.7607°
True anomaly
141.3478°
Mean anomaly
141.0268°
Eccentric anomaly
141.18744°
Mean motion
3.13884 °/min
Orbital period
114.69 mins
BSTAR
0.000057397
Loading maneuver chart data...
Computing Atmospheric mass density...
Loading historical data...
Loading historical data...
Loading historical data...
Loading historical data...
Loading historical data...
Loading historical data...
Loading historical data...

Documentation

Showing up to 5 results
|